{"data":{"norad_id":63604,"epoch":"2026-09-21T23:22:56.131392Z","epoch_age_seconds":80389,"freshness":"FRESH","line1":"1 63604U 25078F   26264.97426078  .00000000  00000+0  62696-4 0  9996","line2":"2 63604  99.6946 270.7509 0000947  91.6789 268.4458 13.57249316 70661","mean_motion":13.57249316,"eccentricity":9.47e-5,"inclination_deg":99.6946,"raan_deg":270.7509,"arg_perigee_deg":91.6789,"mean_anomaly_deg":268.4458,"bstar":6.2696e-5,"rev_number":7066,"period_min":106.0969405565,"perigee_km":1045.0025324946,"apogee_km":1046.4086082775,"semimajor_km":7423.8425703861,"source":"CELESTRAK","updated_at":"2026-09-22T09:00:29.239326Z"}}